Location: Baia Mare
(47.6567°N, 23.5850°E)
Time: 17:52:45

ISS - Pass Details

Date: 31 March 2018
Orbit: 403 x 406 km, 51.6° (Epoch: 21 March)

Event Time Altitude Azimuth Distance (km) Brightness Sun altitude
Rises 20:27:24 0° 260° (W) 2,320 1.5 -6.4°
Reaches altitude 10° 20:29:30 10° 265° (W) 1,462 0.4 -6.7°
Maximum altitude 20:32:44 54° 344° (NNW) 499 -3.2 -7.3°
Drops below altitude 10° 20:35:58 10° 64° (ENE) 1,466 -1.4 -7.8°
Enters shadow 20:36:49 - 66° (ENE) 1,807 -1.0 -7.9°
